Year,Month,Day,Hour,Minute,Value (Times are PST for temperature in C)
2020,08,13,00,00,11.80
2020,08,13,00,01,11.80
2020,08,13,00,02,11.80
2020,08,13,00,03,11.80
2020,08,13,00,04,11.70
2020,08,13,00,05,11.70
2020,08,13,00,06,11.70
2020,08,13,00,07,11.70
2020,08,13,00,08,11.70
2020,08,13,00,09,11.70
2020,08,13,00,10,11.60
2020,08,13,00,11,11.60
2020,08,13,00,12,11.60
2020,08,13,00,13,11.60
2020,08,13,00,14,11.60
2020,08,13,00,15,11.60
2020,08,13,00,16,11.60
2020,08,13,00,17,11.50
2020,08,13,00,18,11.50
2020,08,13,00,19,11.50
2020,08,13,00,20,11.40
2020,08,13,00,21,11.40
2020,08,13,00,22,11.40
2020,08,13,00,23,11.40
2020,08,13,00,24,11.40
2020,08,13,00,25,11.40
2020,08,13,00,26,11.30
2020,08,13,00,27,11.30
2020,08,13,00,28,11.30
2020,08,13,00,29,11.30
2020,08,13,00,30,11.20
2020,08,13,00,31,11.20
2020,08,13,00,32,11.20
2020,08,13,00,33,11.20
2020,08,13,00,34,11.20
2020,08,13,00,35,11.20
2020,08,13,00,36,11.20
2020,08,13,00,37,11.10
2020,08,13,00,38,11.10
2020,08,13,00,39,11.10
2020,08,13,00,40,11.10
2020,08,13,00,41,11.10
2020,08,13,00,42,11.10
2020,08,13,00,43,11.10
2020,08,13,00,44,11.10
2020,08,13,00,45,11.10
2020,08,13,00,46,11.10
2020,08,13,00,47,11.00
2020,08,13,00,48,11.00
2020,08,13,00,49,11.00
2020,08,13,00,50,11.00
2020,08,13,00,51,11.00
2020,08,13,00,52,11.00
2020,08,13,00,53,11.00
2020,08,13,00,54,11.00
2020,08,13,00,55,10.90
2020,08,13,00,56,10.90
2020,08,13,00,57,10.90
2020,08,13,00,58,10.90
2020,08,13,00,59,10.90
2020,08,13,01,00,10.90
2020,08,13,01,01,10.90
2020,08,13,01,02,10.80
2020,08,13,01,03,10.80
2020,08,13,01,04,10.80
2020,08,13,01,05,10.80
2020,08,13,01,06,10.80
2020,08,13,01,07,10.80
2020,08,13,01,08,10.80
2020,08,13,01,09,10.80
2020,08,13,01,10,10.80
2020,08,13,01,11,10.70
2020,08,13,01,12,10.70
2020,08,13,01,13,10.70
2020,08,13,01,14,10.70
2020,08,13,01,15,10.70
2020,08,13,01,16,10.70
2020,08,13,01,17,10.70
2020,08,13,01,18,10.60
2020,08,13,01,19,10.60
2020,08,13,01,20,10.60
2020,08,13,01,21,10.60
2020,08,13,01,22,10.60
2020,08,13,01,23,10.60
2020,08,13,01,24,10.60
2020,08,13,01,25,10.60
2020,08,13,01,26,10.50
2020,08,13,01,27,10.50
2020,08,13,01,28,10.50
2020,08,13,01,29,10.50
2020,08,13,01,30,10.50
2020,08,13,01,31,10.60
2020,08,13,01,32,10.50
2020,08,13,01,33,10.50
2020,08,13,01,34,10.60
2020,08,13,01,35,10.60
2020,08,13,01,36,10.60
2020,08,13,01,37,10.60
2020,08,13,01,38,10.60
2020,08,13,01,39,10.50
2020,08,13,01,40,10.60
2020,08,13,01,41,10.60
2020,08,13,01,42,10.60
2020,08,13,01,43,10.60
2020,08,13,01,44,10.60
2020,08,13,01,45,10.60
2020,08,13,01,46,10.60
2020,08,13,01,47,10.60
2020,08,13,01,48,10.60
2020,08,13,01,49,10.60
2020,08,13,01,50,10.60
2020,08,13,01,51,10.60
2020,08,13,01,52,10.60
2020,08,13,01,53,10.60
2020,08,13,01,54,10.60
2020,08,13,01,55,10.50
2020,08,13,01,56,10.50
2020,08,13,01,57,10.50
2020,08,13,01,58,10.50
2020,08,13,01,59,10.50
2020,08,13,02,00,10.50
2020,08,13,02,01,10.50
2020,08,13,02,02,10.50
2020,08,13,02,03,10.50
2020,08,13,02,04,10.50
2020,08,13,02,05,10.60
2020,08,13,02,06,10.60
2020,08,13,02,07,10.60
2020,08,13,02,08,10.60
2020,08,13,02,09,10.70
2020,08,13,02,10,10.70
2020,08,13,02,11,10.70
2020,08,13,02,12,10.70
2020,08,13,02,13,10.70
2020,08,13,02,14,10.70
2020,08,13,02,15,10.70
2020,08,13,02,16,10.60
2020,08,13,02,17,10.60
2020,08,13,02,18,10.60
2020,08,13,02,19,10.60
2020,08,13,02,20,10.60
2020,08,13,02,21,10.60
2020,08,13,02,22,10.60
2020,08,13,02,23,10.60
2020,08,13,02,24,10.60
2020,08,13,02,25,10.60
2020,08,13,02,26,10.60
2020,08,13,02,27,10.60
2020,08,13,02,28,10.60
2020,08,13,02,29,10.60
2020,08,13,02,30,10.60
2020,08,13,02,31,10.60
2020,08,13,02,32,10.60
2020,08,13,02,33,10.60
2020,08,13,02,34,10.60
2020,08,13,02,35,10.60
2020,08,13,02,36,10.60
2020,08,13,02,37,10.60
2020,08,13,02,38,10.60
2020,08,13,02,39,10.60
2020,08,13,02,40,10.60
2020,08,13,02,41,10.60
2020,08,13,02,42,10.60
2020,08,13,02,43,10.50
2020,08,13,02,44,10.50
2020,08,13,02,45,10.50
2020,08,13,02,46,10.50
2020,08,13,02,47,10.60
2020,08,13,02,48,10.60
2020,08,13,02,49,10.60
2020,08,13,02,50,10.70
2020,08,13,02,51,10.70
2020,08,13,02,52,10.70
2020,08,13,02,53,10.70
2020,08,13,02,54,10.70
2020,08,13,02,55,10.70
2020,08,13,02,56,10.70
2020,08,13,02,57,10.70
2020,08,13,02,58,10.70
2020,08,13,02,59,10.70
2020,08,13,03,00,10.70
2020,08,13,03,01,10.70
2020,08,13,03,02,10.70
2020,08,13,03,03,10.70
2020,08,13,03,04,10.70
2020,08,13,03,05,10.70
2020,08,13,03,06,10.70
2020,08,13,03,07,10.70
2020,08,13,03,08,10.70
2020,08,13,03,09,10.70
2020,08,13,03,10,10.80
2020,08,13,03,11,10.80
2020,08,13,03,12,10.80
2020,08,13,03,13,10.80
2020,08,13,03,14,10.80
2020,08,13,03,15,10.80
2020,08,13,03,16,10.80
2020,08,13,03,17,10.80
2020,08,13,03,18,10.80
2020,08,13,03,19,10.80
2020,08,13,03,20,10.80
2020,08,13,03,21,10.80
2020,08,13,03,22,10.80
2020,08,13,03,23,10.90
2020,08,13,03,24,10.90
2020,08,13,03,25,10.90
2020,08,13,03,26,10.90
2020,08,13,03,27,10.90
2020,08,13,03,28,11.00
2020,08,13,03,29,11.00
2020,08,13,03,30,11.00
2020,08,13,03,31,11.00
2020,08,13,03,32,11.10
2020,08,13,03,33,11.10
2020,08,13,03,34,11.10
2020,08,13,03,35,11.10
2020,08,13,03,36,11.10
2020,08,13,03,37,11.10
2020,08,13,03,38,11.10
2020,08,13,03,39,11.10
2020,08,13,03,40,11.10
2020,08,13,03,41,11.10
2020,08,13,03,42,11.10
2020,08,13,03,43,11.20
2020,08,13,03,44,11.20
2020,08,13,03,45,11.20
2020,08,13,03,46,11.20
2020,08,13,03,47,11.30
2020,08,13,03,48,11.30
2020,08,13,03,49,11.30
2020,08,13,03,50,11.30
2020,08,13,03,51,11.30
2020,08,13,03,52,11.30
2020,08,13,03,53,11.30
2020,08,13,03,54,11.30
2020,08,13,03,55,11.30
2020,08,13,03,56,11.30
2020,08,13,03,57,11.30
2020,08,13,03,58,11.30
2020,08,13,03,59,11.30
2020,08,13,04,00,11.30
2020,08,13,04,01,11.30
2020,08,13,04,02,11.30
2020,08,13,04,03,11.30
2020,08,13,04,04,11.30
2020,08,13,04,05,11.30
2020,08,13,04,06,11.30
2020,08,13,04,07,11.30
2020,08,13,04,08,11.30
2020,08,13,04,09,11.30
2020,08,13,04,10,11.30
2020,08,13,04,11,11.30
2020,08,13,04,12,11.30
2020,08,13,04,13,11.30
2020,08,13,04,14,11.30
2020,08,13,04,15,11.30
2020,08,13,04,16,11.30
2020,08,13,04,17,11.40
2020,08,13,04,18,11.40
2020,08,13,04,19,11.40
2020,08,13,04,20,11.50
2020,08,13,04,21,11.50
2020,08,13,04,22,11.50
2020,08,13,04,23,11.50
2020,08,13,04,24,11.50
2020,08,13,04,25,11.40
2020,08,13,04,26,11.40
2020,08,13,04,27,11.40
2020,08,13,04,28,11.40
2020,08,13,04,29,11.40
2020,08,13,04,30,11.40
2020,08,13,04,31,11.30
2020,08,13,04,32,11.30
2020,08,13,04,33,11.30
2020,08,13,04,34,11.30
2020,08,13,04,35,11.30
2020,08,13,04,36,11.20
2020,08,13,04,37,11.20
2020,08,13,04,38,11.20
2020,08,13,04,39,11.20
2020,08,13,04,40,11.10
2020,08,13,04,41,11.10
2020,08,13,04,42,11.00
2020,08,13,04,43,11.00
2020,08,13,04,44,10.90
2020,08,13,04,45,10.90
2020,08,13,04,46,10.90
2020,08,13,04,47,10.90
2020,08,13,04,48,10.80
2020,08,13,04,49,10.80
2020,08,13,04,50,10.80
2020,08,13,04,51,10.70
2020,08,13,04,52,10.70
2020,08,13,04,53,10.70
2020,08,13,04,54,10.70
2020,08,13,04,55,10.70
2020,08,13,04,56,10.60
2020,08,13,04,57,10.60
2020,08,13,04,58,10.60
2020,08,13,04,59,10.60
2020,08,13,05,00,10.60
2020,08,13,05,01,10.50
2020,08,13,05,02,10.50
2020,08,13,05,03,10.50
2020,08,13,05,04,10.50
2020,08,13,05,05,10.50
2020,08,13,05,06,10.50
2020,08,13,05,07,10.50
2020,08,13,05,08,10.40
2020,08,13,05,09,10.40
2020,08,13,05,10,10.40
2020,08,13,05,11,10.40
2020,08,13,05,12,10.40
2020,08,13,05,13,10.40
2020,08,13,05,14,10.40
2020,08,13,05,15,10.40
2020,08,13,05,16,10.40
2020,08,13,05,17,10.40
2020,08,13,05,18,10.40
2020,08,13,05,19,10.40
2020,08,13,05,20,10.40
2020,08,13,05,21,10.40
2020,08,13,05,22,10.40
2020,08,13,05,23,10.40
2020,08,13,05,24,10.40
2020,08,13,05,25,10.40
2020,08,13,05,26,10.40
2020,08,13,05,27,10.40
2020,08,13,05,28,10.40
2020,08,13,05,29,10.40
2020,08,13,05,30,10.40
2020,08,13,05,31,10.40
2020,08,13,05,32,10.40
2020,08,13,05,33,10.40
2020,08,13,05,34,10.40
2020,08,13,05,35,10.40
2020,08,13,05,36,10.40
2020,08,13,05,37,10.40
2020,08,13,05,38,10.40
2020,08,13,05,39,10.40
2020,08,13,05,40,10.40
2020,08,13,05,41,10.40
2020,08,13,05,42,10.40
2020,08,13,05,43,10.40
2020,08,13,05,44,10.40
2020,08,13,05,45,10.40
2020,08,13,05,46,10.50
2020,08,13,05,47,10.50
2020,08,13,05,48,10.50
2020,08,13,05,49,10.50
2020,08,13,05,50,10.50
2020,08,13,05,51,10.50
2020,08,13,05,52,10.50
2020,08,13,05,53,10.50
2020,08,13,05,54,10.50
2020,08,13,05,55,10.50
2020,08,13,05,56,10.40
2020,08,13,05,57,10.50
2020,08,13,05,58,10.40
2020,08,13,05,59,10.40
2020,08,13,06,00,10.40
2020,08,13,06,01,10.40
2020,08,13,06,02,10.40
2020,08,13,06,03,10.50
2020,08,13,06,04,10.40
2020,08,13,06,05,10.50
2020,08,13,06,06,10.50
2020,08,13,06,07,10.40
2020,08,13,06,08,10.40
2020,08,13,06,09,10.40
2020,08,13,06,10,10.40
2020,08,13,06,11,10.40
2020,08,13,06,12,10.40
2020,08,13,06,13,10.40
2020,08,13,06,14,10.40
2020,08,13,06,15,10.40
2020,08,13,06,16,10.30
2020,08,13,06,17,10.30
2020,08,13,06,18,10.30
2020,08,13,06,19,10.30
2020,08,13,06,20,10.30
2020,08,13,06,21,10.30
2020,08,13,06,22,10.30
2020,08,13,06,23,10.30
2020,08,13,06,24,10.40
2020,08,13,06,25,10.40
2020,08,13,06,26,10.30
2020,08,13,06,27,10.30
2020,08,13,06,28,10.30
2020,08,13,06,29,10.30
2020,08,13,06,30,10.40
2020,08,13,06,31,10.40
2020,08,13,06,32,10.40
2020,08,13,06,33,10.40
2020,08,13,06,34,10.40
2020,08,13,06,35,10.50
2020,08,13,06,36,10.50
2020,08,13,06,37,10.60
2020,08,13,06,38,10.60
2020,08,13,06,39,10.60
2020,08,13,06,40,10.60
2020,08,13,06,41,10.60
2020,08,13,06,42,10.60
2020,08,13,06,43,10.60
2020,08,13,06,44,10.60
2020,08,13,06,45,10.60
2020,08,13,06,46,10.60
2020,08,13,06,47,10.50
2020,08,13,06,48,10.60
2020,08,13,06,49,10.60
2020,08,13,06,50,10.60
2020,08,13,06,51,10.60
2020,08,13,06,52,10.60
2020,08,13,06,53,10.60
2020,08,13,06,54,10.50
2020,08,13,06,55,10.60
2020,08,13,06,56,10.60
2020,08,13,06,57,10.60
2020,08,13,06,58,10.60
2020,08,13,06,59,10.60
2020,08,13,07,00,10.60
2020,08,13,07,01,10.60
2020,08,13,07,02,10.60
2020,08,13,07,03,10.60
2020,08,13,07,04,10.60
2020,08,13,07,05,10.60
2020,08,13,07,06,10.60
2020,08,13,07,07,10.70
2020,08,13,07,08,10.70
2020,08,13,07,09,10.70
2020,08,13,07,10,10.70
2020,08,13,07,11,10.70
2020,08,13,07,12,10.80
2020,08,13,07,13,10.80
2020,08,13,07,14,10.80
2020,08,13,07,15,10.80
2020,08,13,07,16,10.80
2020,08,13,07,17,10.80
2020,08,13,07,18,10.90
2020,08,13,07,19,10.90
2020,08,13,07,20,10.90
2020,08,13,07,21,10.90
2020,08,13,07,22,11.00
2020,08,13,07,23,11.00
2020,08,13,07,24,11.10
2020,08,13,07,25,11.10
2020,08,13,07,26,11.20
2020,08,13,07,27,11.20
2020,08,13,07,28,11.20
2020,08,13,07,29,11.30
2020,08,13,07,30,11.30
2020,08,13,07,31,11.30
2020,08,13,07,32,11.30
2020,08,13,07,33,11.30
2020,08,13,07,34,11.40
2020,08,13,07,35,11.40
2020,08,13,07,36,11.40
2020,08,13,07,37,11.50
2020,08,13,07,38,11.50
2020,08,13,07,39,11.60
2020,08,13,07,40,11.60
2020,08,13,07,41,11.60
2020,08,13,07,42,11.70
2020,08,13,07,43,11.70
2020,08,13,07,44,11.70
2020,08,13,07,45,11.80
2020,08,13,07,46,11.80
2020,08,13,07,47,11.90
2020,08,13,07,48,11.90
2020,08,13,07,49,12.00
2020,08,13,07,50,12.00
2020,08,13,07,51,12.10
2020,08,13,07,52,12.10
2020,08,13,07,53,12.10
2020,08,13,07,54,12.10
2020,08,13,07,55,12.10
2020,08,13,07,56,12.20
2020,08,13,07,57,12.20
2020,08,13,07,58,12.20
2020,08,13,07,59,12.30
2020,08,13,08,00,12.30
2020,08,13,08,01,12.30
2020,08,13,08,02,12.40
2020,08,13,08,03,12.40
2020,08,13,08,04,12.50
2020,08,13,08,05,12.50
2020,08,13,08,06,12.50
2020,08,13,08,07,12.60
2020,08,13,08,08,12.60
2020,08,13,08,09,12.60
2020,08,13,08,10,12.70
2020,08,13,08,11,12.70
2020,08,13,08,12,12.70
2020,08,13,08,13,12.80
2020,08,13,08,14,12.80
2020,08,13,08,15,12.80
2020,08,13,08,16,12.80
2020,08,13,08,17,12.90
2020,08,13,08,18,12.90
2020,08,13,08,19,13.00
2020,08,13,08,20,13.00
2020,08,13,08,21,13.10
2020,08,13,08,22,13.10
2020,08,13,08,23,13.10
2020,08,13,08,24,13.10
2020,08,13,08,25,13.10
2020,08,13,08,26,13.10
2020,08,13,08,27,13.20
2020,08,13,08,28,13.20
2020,08,13,08,29,13.20
2020,08,13,08,30,13.20
2020,08,13,08,31,13.20
2020,08,13,08,32,13.20
2020,08,13,08,33,13.30
2020,08,13,08,34,13.30
2020,08,13,08,35,13.30
2020,08,13,08,36,13.30
2020,08,13,08,37,13.40
2020,08,13,08,38,13.40
2020,08,13,08,39,13.50
2020,08,13,08,40,13.60
2020,08,13,08,41,13.60
2020,08,13,08,42,13.70
2020,08,13,08,43,13.70
2020,08,13,08,44,13.70
2020,08,13,08,45,13.80
2020,08,13,08,46,13.80
2020,08,13,08,47,13.80
2020,08,13,08,48,13.80
2020,08,13,08,49,13.90
2020,08,13,08,50,13.90
2020,08,13,08,51,13.90
2020,08,13,08,52,13.90
2020,08,13,08,53,13.90
2020,08,13,08,54,14.00
2020,08,13,08,55,14.00
2020,08,13,08,56,14.10
2020,08,13,08,57,14.10
2020,08,13,08,58,14.10
2020,08,13,08,59,14.20
2020,08,13,09,00,14.20
2020,08,13,09,01,14.20
2020,08,13,09,02,14.20
2020,08,13,09,03,14.20
2020,08,13,09,04,14.20
2020,08,13,09,05,14.20
2020,08,13,09,06,14.20
2020,08,13,09,07,14.20
2020,08,13,09,08,14.20
2020,08,13,09,09,14.20
2020,08,13,09,10,14.20
2020,08,13,09,11,14.30
2020,08,13,09,12,14.30
2020,08,13,09,13,14.30
2020,08,13,09,14,14.30
2020,08,13,09,15,14.30
2020,08,13,09,16,14.30
2020,08,13,09,17,14.30
2020,08,13,09,18,14.40
2020,08,13,09,19,14.40
2020,08,13,09,20,14.40
2020,08,13,09,21,14.50
2020,08,13,09,22,14.50
2020,08,13,09,23,14.50
2020,08,13,09,24,14.50
2020,08,13,09,25,14.50
2020,08,13,09,26,14.60
2020,08,13,09,27,14.60
2020,08,13,09,28,14.60
2020,08,13,09,29,14.60
2020,08,13,09,30,14.60
2020,08,13,09,31,14.60
2020,08,13,09,32,14.60
2020,08,13,09,33,14.70
2020,08,13,09,34,14.70
2020,08,13,09,35,14.70
2020,08,13,09,36,14.70
2020,08,13,09,37,14.70
2020,08,13,09,38,14.70
2020,08,13,09,39,14.70
2020,08,13,09,40,14.70
2020,08,13,09,41,14.70
2020,08,13,09,42,14.70
2020,08,13,09,43,14.70
2020,08,13,09,44,14.70
2020,08,13,09,45,14.70
2020,08,13,09,46,14.80
2020,08,13,09,47,14.80
2020,08,13,09,48,14.80
2020,08,13,09,49,14.80
2020,08,13,09,50,14.90
2020,08,13,09,51,15.00
2020,08,13,09,52,15.00
2020,08,13,09,53,15.10
2020,08,13,09,54,15.20
2020,08,13,09,55,15.30
2020,08,13,09,56,15.40
2020,08,13,09,57,15.50
2020,08,13,09,58,15.50
2020,08,13,09,59,15.60
2020,08,13,10,00,15.70
2020,08,13,10,01,15.70
2020,08,13,10,02,15.70
2020,08,13,10,03,15.70
2020,08,13,10,04,15.80
2020,08,13,10,05,15.80
2020,08,13,10,06,15.80
2020,08,13,10,07,15.90
2020,08,13,10,08,16.00
2020,08,13,10,09,16.00
2020,08,13,10,10,16.10
2020,08,13,10,11,16.20
2020,08,13,10,12,16.30
2020,08,13,10,13,16.40
2020,08,13,10,14,16.50
2020,08,13,10,15,16.60
2020,08,13,10,16,16.60
2020,08,13,10,17,16.60
2020,08,13,10,18,16.70
2020,08,13,10,19,16.60
2020,08,13,10,20,16.60
2020,08,13,10,21,16.60
2020,08,13,10,22,16.60
2020,08,13,10,23,16.50
2020,08,13,10,24,16.50
2020,08,13,10,25,16.50
2020,08,13,10,26,16.50
2020,08,13,10,27,16.50
2020,08,13,10,28,16.50
2020,08,13,10,29,16.40
2020,08,13,10,30,16.40
2020,08,13,10,31,16.50
2020,08,13,10,32,16.50
2020,08,13,10,33,16.60
2020,08,13,10,34,16.60
2020,08,13,10,35,16.60
2020,08,13,10,36,16.60
2020,08,13,10,37,16.60
2020,08,13,10,38,16.70
2020,08,13,10,39,16.80
2020,08,13,10,40,16.90
2020,08,13,10,41,17.00
2020,08,13,10,42,17.00
2020,08,13,10,43,17.10
2020,08,13,10,44,17.10
2020,08,13,10,45,17.10
2020,08,13,10,46,17.10
2020,08,13,10,47,17.00
2020,08,13,10,48,17.00
2020,08,13,10,49,17.00
2020,08,13,10,50,17.00
2020,08,13,10,51,17.00
2020,08,13,10,52,17.00
2020,08,13,10,53,16.90
2020,08,13,10,54,16.90
2020,08,13,10,55,17.00
2020,08,13,10,56,17.10
2020,08,13,10,57,17.20
2020,08,13,10,58,17.30
2020,08,13,10,59,17.40
2020,08,13,11,00,17.50
2020,08,13,11,01,17.70
2020,08,13,11,02,17.80
2020,08,13,11,03,18.00
2020,08,13,11,04,18.10
2020,08,13,11,05,18.20
2020,08,13,11,06,18.30
2020,08,13,11,07,18.30
2020,08,13,11,08,18.40
2020,08,13,11,09,18.50
2020,08,13,11,10,18.60
2020,08,13,11,11,18.70
2020,08,13,11,12,18.80
2020,08,13,11,13,18.80
2020,08,13,11,14,18.90
2020,08,13,11,15,19.00
2020,08,13,11,16,19.10
2020,08,13,11,17,19.20
2020,08,13,11,18,19.30
2020,08,13,11,19,19.40
2020,08,13,11,20,19.60
2020,08,13,11,21,19.60
2020,08,13,11,22,19.70
2020,08,13,11,23,19.80
2020,08,13,11,24,19.80
2020,08,13,11,25,19.80
2020,08,13,11,26,19.80
2020,08,13,11,27,19.80
2020,08,13,11,28,19.80
2020,08,13,11,29,19.90
2020,08,13,11,30,19.90
2020,08,13,11,31,19.90
2020,08,13,11,32,19.80
2020,08,13,11,33,19.80
2020,08,13,11,34,19.80
2020,08,13,11,35,19.80
2020,08,13,11,36,19.90
2020,08,13,11,37,19.80
2020,08,13,11,38,19.90
2020,08,13,11,39,19.90
2020,08,13,11,40,19.80
2020,08,13,11,41,19.80
2020,08,13,11,42,19.80
2020,08,13,11,43,19.80
2020,08,13,11,44,19.70
2020,08,13,11,45,19.60
2020,08,13,11,46,19.60
2020,08,13,11,47,19.60
2020,08,13,11,48,19.60
2020,08,13,11,49,19.50
2020,08,13,11,50,19.50
2020,08,13,11,51,19.40
2020,08,13,11,52,19.40
2020,08,13,11,53,19.40
2020,08,13,11,54,19.40
2020,08,13,11,55,19.50
2020,08,13,11,56,19.50
2020,08,13,11,57,19.50
2020,08,13,11,58,19.50
2020,08,13,11,59,19.60
2020,08,13,12,00,19.60
2020,08,13,12,01,19.60
2020,08,13,12,02,19.60
2020,08,13,12,03,19.60
2020,08,13,12,04,19.60
2020,08,13,12,05,19.60
2020,08,13,12,06,19.60
2020,08,13,12,07,19.70
2020,08,13,12,08,19.60
2020,08,13,12,09,19.50
2020,08,13,12,10,19.50
2020,08,13,12,11,19.50
2020,08,13,12,12,19.60
2020,08,13,12,13,19.70
2020,08,13,12,14,19.80
2020,08,13,12,15,19.90
2020,08,13,12,16,19.90
2020,08,13,12,17,20.00
2020,08,13,12,18,20.10
2020,08,13,12,19,20.10
2020,08,13,12,20,20.20
2020,08,13,12,21,20.30
2020,08,13,12,22,20.30
2020,08,13,12,23,20.20
2020,08,13,12,24,20.20
2020,08,13,12,25,20.10
2020,08,13,12,26,20.10
2020,08,13,12,27,20.00
2020,08,13,12,28,20.00
2020,08,13,12,29,19.90
2020,08,13,12,30,19.80
2020,08,13,12,31,19.80
2020,08,13,12,32,19.80
2020,08,13,12,33,19.80
2020,08,13,12,34,19.80
2020,08,13,12,35,19.60
2020,08,13,12,36,19.60
2020,08,13,12,37,19.60
2020,08,13,12,38,19.50
2020,08,13,12,39,19.50
2020,08,13,12,40,19.50
2020,08,13,12,41,19.40
2020,08,13,12,42,19.50
2020,08,13,12,43,19.50
2020,08,13,12,44,19.60
2020,08,13,12,45,19.60
2020,08,13,12,46,19.60
2020,08,13,12,47,19.50
2020,08,13,12,48,19.40
2020,08,13,12,49,19.40
2020,08,13,12,50,19.40
2020,08,13,12,51,19.30
2020,08,13,12,52,19.30
2020,08,13,12,53,19.40
2020,08,13,12,54,19.50
2020,08,13,12,55,19.50
2020,08,13,12,56,19.60
2020,08,13,12,57,19.60
2020,08,13,12,58,19.60
2020,08,13,12,59,19.70
2020,08,13,13,00,19.60
2020,08,13,13,01,19.70
2020,08,13,13,02,19.70
2020,08,13,13,03,19.70
2020,08,13,13,04,19.70
2020,08,13,13,05,19.60
2020,08,13,13,06,19.60
2020,08,13,13,07,19.60
2020,08,13,13,08,19.60
2020,08,13,13,09,19.60
2020,08,13,13,10,19.60
2020,08,13,13,11,19.60
2020,08,13,13,12,19.50
2020,08,13,13,13,19.50
2020,08,13,13,14,19.60
2020,08,13,13,15,19.60
2020,08,13,13,16,19.80
2020,08,13,13,17,19.90
2020,08,13,13,18,20.00
2020,08,13,13,19,20.10
2020,08,13,13,20,20.10
2020,08,13,13,21,20.10
2020,08,13,13,22,20.10
2020,08,13,13,23,20.10
2020,08,13,13,24,20.10
2020,08,13,13,25,20.20
2020,08,13,13,26,20.20
2020,08,13,13,27,20.10
2020,08,13,13,28,20.10
2020,08,13,13,29,20.10
2020,08,13,13,30,20.10
2020,08,13,13,31,20.10
2020,08,13,13,32,20.20
2020,08,13,13,33,20.20
2020,08,13,13,34,20.20
2020,08,13,13,35,20.20
2020,08,13,13,36,20.20
2020,08,13,13,37,20.20
2020,08,13,13,38,20.20
2020,08,13,13,39,20.10
2020,08,13,13,40,20.10
2020,08,13,13,41,20.10
2020,08,13,13,42,20.10
2020,08,13,13,43,20.00
2020,08,13,13,44,20.00
2020,08,13,13,45,19.90
2020,08,13,13,46,19.90
2020,08,13,13,47,19.80
2020,08,13,13,48,19.80
2020,08,13,13,49,19.80
2020,08,13,13,50,19.70
2020,08,13,13,51,19.70
2020,08,13,13,52,19.80
2020,08,13,13,53,19.80
2020,08,13,13,54,19.80
2020,08,13,13,55,19.80
2020,08,13,13,56,19.70
2020,08,13,13,57,19.70
2020,08,13,13,58,19.70
2020,08,13,13,59,19.80
2020,08,13,14,00,19.80
2020,08,13,14,01,19.80
2020,08,13,14,02,19.80
2020,08,13,14,03,19.80
2020,08,13,14,04,19.80
2020,08,13,14,05,19.80
2020,08,13,14,06,19.80
2020,08,13,14,07,19.80
2020,08,13,14,08,19.80
2020,08,13,14,09,19.90
2020,08,13,14,10,19.90
2020,08,13,14,11,20.00
2020,08,13,14,12,20.10
2020,08,13,14,13,20.10
2020,08,13,14,14,20.10
2020,08,13,14,15,20.10
2020,08,13,14,16,20.10
2020,08,13,14,17,20.10
2020,08,13,14,18,20.10
2020,08,13,14,19,20.00
2020,08,13,14,20,20.10
2020,08,13,14,21,20.10
2020,08,13,14,22,20.10
2020,08,13,14,23,20.20
2020,08,13,14,24,20.20
2020,08,13,14,25,20.20
2020,08,13,14,26,20.10
2020,08,13,14,27,20.00
2020,08,13,14,28,20.00
2020,08,13,14,29,20.00
2020,08,13,14,30,20.10
2020,08,13,14,31,20.10
2020,08,13,14,32,20.20
2020,08,13,14,33,20.20
2020,08,13,14,34,20.30
2020,08,13,14,35,20.30
2020,08,13,14,36,20.40
2020,08,13,14,37,20.40
2020,08,13,14,38,20.50
2020,08,13,14,39,20.60
2020,08,13,14,40,20.70
2020,08,13,14,41,20.80
2020,08,13,14,42,20.80
2020,08,13,14,43,20.80
2020,08,13,14,44,20.80
2020,08,13,14,45,20.80
2020,08,13,14,46,20.90
2020,08,13,14,47,20.90
2020,08,13,14,48,20.90
2020,08,13,14,49,20.90
2020,08,13,14,50,20.90
2020,08,13,14,51,21.00
2020,08,13,14,52,21.00
2020,08,13,14,53,21.10
2020,08,13,14,54,21.10
2020,08,13,14,55,21.10
2020,08,13,14,56,21.20
2020,08,13,14,57,21.20
2020,08,13,14,58,21.20
2020,08,13,14,59,21.20
2020,08,13,15,00,21.20
2020,08,13,15,01,21.20
2020,08,13,15,02,21.20
2020,08,13,15,03,21.20
2020,08,13,15,04,21.20
2020,08,13,15,05,21.20
2020,08,13,15,06,21.30
2020,08,13,15,07,21.30
2020,08,13,15,08,21.40
2020,08,13,15,09,21.30
2020,08,13,15,10,21.30
2020,08,13,15,11,21.20
2020,08,13,15,12,21.20
2020,08,13,15,13,21.20
2020,08,13,15,14,21.20
2020,08,13,15,15,21.20
2020,08,13,15,16,21.20
2020,08,13,15,17,21.30
2020,08,13,15,18,21.30
2020,08,13,15,19,21.40
2020,08,13,15,20,21.40
2020,08,13,15,21,21.50
2020,08,13,15,22,21.60
2020,08,13,15,23,21.60
2020,08,13,15,24,21.60
2020,08,13,15,25,21.60
2020,08,13,15,26,21.60
2020,08,13,15,27,21.60
2020,08,13,15,28,21.60
2020,08,13,15,29,21.60
2020,08,13,15,30,21.60
2020,08,13,15,31,21.60
2020,08,13,15,32,21.50
2020,08,13,15,33,21.60
2020,08,13,15,34,21.60
2020,08,13,15,35,21.60
2020,08,13,15,36,21.70
2020,08,13,15,37,21.70
2020,08,13,15,38,21.60
2020,08,13,15,39,21.60
2020,08,13,15,40,21.50
2020,08,13,15,41,21.50
2020,08,13,15,42,21.50
2020,08,13,15,43,21.60
2020,08,13,15,44,21.60
2020,08,13,15,45,21.60
2020,08,13,15,46,21.50
2020,08,13,15,47,21.50
2020,08,13,15,48,21.40
2020,08,13,15,49,21.40
2020,08,13,15,50,21.30
2020,08,13,15,51,21.40
2020,08,13,15,52,21.50
2020,08,13,15,53,21.50
2020,08,13,15,54,21.60
2020,08,13,15,55,21.70
2020,08,13,15,56,21.70
2020,08,13,15,57,21.70
2020,08,13,15,58,21.70
2020,08,13,15,59,21.80
2020,08,13,16,00,21.80
2020,08,13,16,01,21.80
2020,08,13,16,02,21.80
2020,08,13,16,03,21.70
2020,08,13,16,04,21.70
2020,08,13,16,05,21.70
2020,08,13,16,06,21.70
2020,08,13,16,07,21.70
2020,08,13,16,08,21.70
2020,08,13,16,09,21.80
2020,08,13,16,10,21.80
2020,08,13,16,11,21.90
2020,08,13,16,12,21.90
2020,08,13,16,13,22.00
2020,08,13,16,14,22.10
2020,08,13,16,15,22.20
2020,08,13,16,16,22.20
2020,08,13,16,17,22.20
2020,08,13,16,18,22.20
2020,08,13,16,19,22.20
2020,08,13,16,20,22.20
2020,08,13,16,21,22.10
2020,08,13,16,22,22.10
2020,08,13,16,23,22.10
2020,08,13,16,24,22.10
2020,08,13,16,25,22.10
2020,08,13,16,26,22.10
2020,08,13,16,27,22.00
2020,08,13,16,28,22.00
2020,08,13,16,29,22.00
2020,08,13,16,30,22.00
2020,08,13,16,31,22.00
2020,08,13,16,32,22.00
2020,08,13,16,33,22.10
2020,08,13,16,34,22.10
2020,08,13,16,35,22.10
2020,08,13,16,36,22.10
2020,08,13,16,37,22.10
2020,08,13,16,38,22.20
2020,08,13,16,39,22.20
2020,08,13,16,40,22.20
2020,08,13,16,41,22.20
2020,08,13,16,42,22.20
2020,08,13,16,43,22.20
2020,08,13,16,44,22.20
2020,08,13,16,45,22.20
2020,08,13,16,46,22.20
2020,08,13,16,47,22.20
2020,08,13,16,48,22.20
2020,08,13,16,49,22.20
2020,08,13,16,50,22.20
2020,08,13,16,51,22.20
2020,08,13,16,52,22.20
2020,08,13,16,53,22.20
2020,08,13,16,54,22.20
2020,08,13,16,55,22.20
2020,08,13,16,56,22.20
2020,08,13,16,57,22.10
2020,08,13,16,58,22.00
2020,08,13,16,59,21.90
2020,08,13,17,00,21.80
2020,08,13,17,01,21.80
2020,08,13,17,02,21.70
2020,08,13,17,03,21.60
2020,08,13,17,04,21.60
2020,08,13,17,05,21.60
2020,08,13,17,06,21.60
2020,08,13,17,07,21.70
2020,08,13,17,08,21.60
2020,08,13,17,09,21.70
2020,08,13,17,10,21.60
2020,08,13,17,11,21.60
2020,08,13,17,12,21.50
2020,08,13,17,13,21.30
2020,08,13,17,14,21.30
2020,08,13,17,15,21.20
2020,08,13,17,16,21.10
2020,08,13,17,17,21.00
2020,08,13,17,18,20.90
2020,08,13,17,19,20.80